Regional Weather Roundup
Issued by NWS Spokane, WA

Home | Current Version | Previous Version | Text Only | Print | Product List | Glossary On
Versions: 1 2 3 4 5 6 7 8 9 10 11 12 13 14 15 16 17 18 19 20 21 22 23 24 25 26 27 28 29 30 31 32 33 34 35 36 37 38 39 40 41 42 43 44 45 46 47 48 49 50
000
NZUS01 KOTX 300810
RWROTX
EASTERN WASHINGTON/NORTHERN IDAHO ROUNDUP
NATIONAL WEATHER SERVICE, SPOKANE WA
100 AM PDT TUE JUN 30 2015

Note: "fair" indicated few or no clouds below 12,000 feet with no
significant weather and/or obstructions to visibility.

...NORTHEAST WASHINGTON AND NORTHERN IDAHO PANHANDLE...

CITY           SKY/WX    TMP DP  RH WIND       PRES   REMARKS
SPOKANE INTL   PTCLDY    75  56  51 N6        29.98R
SPOKANE DOWNTO CLEAR     74  58  57 CALM      29.97R
COEUR D ALENE  CLEAR     73  57  56 NE9       29.97S
DEER PARK      CLEAR     62  57  83 N8        29.99R
SANDPOINT      CLEAR     63  63 100 CALM      30.00R
BONNERS FERRY  FAIR      59  59 100 CALM      30.03S FOG

...SOUTHEAST WASHINGTON AND SOUTHERN IDAHO PANHANDLE...

CITY           SKY/WX    TMP DP  RH WIND       PRES   REMARKS
WALLA WALLA    CLEAR     82  57  42 S14       29.94R
PULLMAN/MOSCOW CLEAR     62  57  83 CALM      30.02R
LEWISTON       CLEAR     80  55  42 W5        29.93R
LOWELL           N/A     72  65  78 CALM      29.96R

...COLUMBIA BASIN...

CITY           SKY/WX    TMP DP  RH WIND       PRES   REMARKS
EPHRATA        CLEAR     81  55  40 NW16      29.94R
MOSES LAKE     CLEAR     81  54  39 NW13      29.95R
TRI CITIES     PTCLDY    78  57  48 NE5       29.91R
HERMISTON      CLEAR     81  58  45 SW10      29.92R
PENDLETON      CLEAR     79  55  43 W9        29.98R

...EAST SLOPES CASCADES...

CITY           SKY/WX    TMP DP  RH WIND       PRES   REMARKS
THE DALLES     CLEAR     78  59  51 NW7       29.95R
YAKIMA         CLEAR     81  55  40 N8        29.98R
ELLENSBURG     CLEAR     75  56  51 MISG      30.01R
WENATCHEE      CLEAR     80  55  42 W6        29.98R
OMAK           CLEAR     74  60  61 NW14      29.98R

...SOUTHERN BRITISH COLUMBIA...

CITY           SKY/WX    TMP DP  RH WIND       PRES   REMARKS
PENTICTON      PTCLDY    68  61  77 NW5       30.02S
CRANBROOK      PTCLDY    61  55  82 W5        30.05S

...WESTERN MONTANA...

CITY           SKY/WX    TMP DP  RH WIND       PRES   REMARKS
MISSOULA       MOCLDY    70  62  76 S7        30.05R

...NEIGHBORING CITIES...

CITY           SKY/WX    TMP DP  RH WIND       PRES   REMARKS
SEATTLE        CLEAR     63  57  81 SW7       30.07S
CALGARY        MOCLDY    63  57  82 CALM      29.94F



USA.gov is the U.S. government's official web portal to all federal, state and local government web resources and services.